ECMWFFLT1_250_spd_132.txt.gz
Wind_Speed
39 40 41 42 42 42 43 44 44 45 45 45 45 45 46 46 47 48 50 51 52 54 56 57 58 59 60 61 61 61 60 59 58 57 55 54 53 53 53 53 53 53 52 51 50 51 52 53 54 57 59 61 61 59 56 54 55 56 57 58 58 58 58
40 40 42 43 43 43 44 45 45 46 46 47 48 49 49 49 50 51 52 54 55 57 58 59 59 59 59 59 59 59 58 57 56 54 52 52 52 52 52 52 52 52 51 50 50 51 52 54 56 59 60 59 57 54 52 52 54 56 57 57 57 58 58
41 42 43 44 44 44 45 45 46 47 47 48 49 50 51 51 52 53 54 55 56 57 59 59 58 58 57 57 57 56 55 54 53 52 51 51 51 51 51 51 50 50 49 49 50 52 53 55 58 59 59 56 52 50 50 51 54 55 56 57 57 58 58
43 44 44 44 44 45 46 47 47 48 48 49 50 51 52 53 54 55 55 55 55 57 59 58 56 55 55 55 54 53 52 51 50 50 51 51 51 51 50 49 48 48 49 49 51 52 55 57 59 59 57 52 48 47 49 51 53 55 56 57 57 58 59
45 45 45 45 46 47 47 48 49 49 50 51 52 53 54 54 55 54 54 54 53 55 57 57 55 53 53 52 51 51 50 49 50 50 50 50 50 49 48 47 47 47 48 49 51 54 56 58 59 57 53 48 46 47 49 50 52 54 55 56 57 58 60
47 46 46 47 48 48 48 49 50 51 52 53 53 54 54 54 53 53 52 52 51 52 54 54 53 51 50 50 50 49 49 49 49 49 48 48 48 47 46 45 45 46 47 50 53 55 57 58 56 52 48 46 46 48 49 50 52 54 55 55 57 59 61
47 47 47 48 49 49 49 50 51 51 52 52 53 53 52 52 52 51 51 50 49 50 51 51 50 49 49 49 49 48 48 47 47 47 47 46 46 45 45 44 45 46 49 52 54 56 56 54 50 46 44 45 47 48 49 50 51 53 54 56 57 59 62
48 48 48 48 48 49 50 51 51 51 51 51 51 51 51 50 50 49 49 48 47 47 48 48 48 48 48 47 47 46 46 45 45 45 45 45 45 44 44 44 46 49 51 53 55 55 53 49 45 43 43 45 47 48 48 49 51 52 54 56 58 60 64
50 49 47 47 48 49 50 51 50 49 49 50 50 49 49 48 47 47 47 46 46 45 45 46 46 46 46 45 44 44 44 44 44 44 44 44 44 44 44 46 48 49 51 52 53 51 48 45 43 42 43 44 46 46 47 49 51 53 54 56 58 61 65
49 47 46 46 48 49 49 49 48 48 48 48 48 47 46 45 45 44 44 44 44 44 44 44 44 43 43 43 43 43 43 43 44 44 44 44 44 44 45 46 47 49 50 50 49 47 44 43 43 43 44 44 44 45 46 48 51 53 56 57 59 62 66
47 46 45 46 47 48 48 47 46 46 46 46 45 45 44 43 43 42 42 42 42 42 42 42 42 42 42 42 42 42 42 42 43 43 43 43 43 44 45 46 47 48 48 47 46 44 43 43 44 45 45 44 44 45 46 48 51 54 56 58 60 64 68
44 44 44 46 46 46 46 45 44 43 44 43 43 42 41 41 41 41 41 41 40 40 41 41 41 41 41 41 41 41 41 42 42 42 42 43 43 44 45 45 46 46 46 45 44 43 43 44 46 46 45 45 45 46 47 50 52 55 57 59 62 66 70
43 44 44 45 44 43 43 42 42 41 41 41 40 39 39 39 39 40 40 40 40 40 41 41 41 41 41 41 40 40 41 41 42 42 43 43 44 44 44 44 44 45 45 45 44 43 44 46 47 46 45 46 47 48 50 52 54 56 58 60 63 68 70
42 42 42 42 41 40 40 40 39 39 39 39 38 38 38 38 39 39 40 40 41 41 41 41 41 41 41 41 41 41 41 42 42 43 43 43 43 43 43 43 43 44 45 46 45 44 46 47 47 47 47 48 48 49 51 53 55 58 60 61 64 68 69
39 39 40 40 40 40 39 38 38 37 37 37 37 37 38 39 40 40 41 42 42 42 41 41 41 41 41 41 41 41 41 42 43 43 43 43 43 43 42 42 43 45 47 49 48 47 48 48 48 48 49 49 49 51 53 54 56 58 60 62 65 67 69
37 38 39 39 39 38 38 37 37 37 37 38 38 39 39 40 41 42 42 43 42 42 42 42 42 41 41 41 41 41 41 42 42 42 42 42 42 42 41 42 44 47 49 50 51 50 50 50 50 50 50 49 50 52 54 55 57 59 60 62 65 67 68
36 36 38 38 38 37 37 37 37 37 38 39 40 40 41 42 42 43 43 43 43 42 42 42 41 41 41 41 41 40 41 42 42 42 42 42 42 42 43 44 46 48 50 50 52 52 51 51 52 52 51 51 52 54 55 56 58 59 60 62 66 68 69
35 35 36 37 37 37 38 38 38 38 39 40 41 42 42 43 43 43 43 43 43 42 42 41 41 40 40 40 40 40 41 42 43 43 42 42 43 44 45 47 48 50 51 51 53 53 52 52 54 53 52 53 54 55 55 56 58 60 62 64 66 69 71
35 36 37 38 38 39 39 39 39 39 40 41 42 43 43 43 44 44 44 43 43 42 41 41 40 39 39 39 39 40 41 42 43 43 43 44 45 45 46 47 49 51 52 53 54 54 53 54 54 54 54 55 55 55 55 57 59 61 63 66 68 70 71
37 39 39 40 39 39 39 39 39 40 40 41 42 43 43 44 44 44 43 43 42 41 41 40 39 38 38 38 39 40 41 43 43 44 44 45 46 46 46 48 50 52 54 55 55 55 54 53 53 53 54 55 56 56 57 58 60 61 64 67 69 70 72
39 39 39 38 39 39 39 39 39 40 40 41 42 43 43 43 43 43 42 42 41 41 40 39 38 38 38 38 39 41 42 43 44 44 45 46 46 47 48 49 51 54 55 55 55 55 53 53 53 53 55 57 58 57 58 60 61 64 66 68 69 71 72
35 35 35 36 37 37 37 37 37 38 40 41 41 42 42 42 42 42 41 41 40 40 39 39 38 38 38 38 40 42 43 44 44 45 45 46 47 48 49 50 52 55 55 54 53 53 52 52 52 54 56 60 61 59 60 63 65 66 67 68 69 71 72
33 33 34 35 36 35 35 35 36 38 39 40 40 40 41 41 40 40 40 40 39 39 39 39 39 39 38 39 40 42 43 44 45 45 46 47 48 49 50 51 53 55 53 52 51 52 52 51 52 55 58 62 65 65 64 65 67 67 67 68 70 71 72
36 37 37 37 36 36 35 36 37 38 39 39 39 39 39 39 39 39 40 40 39 39 39 40 40 39 39 39 40 42 44 45 46 46 46 47 49 51 51 52 53 53 52 52 53 55 53 52 54 56 59 62 66 67 67 66 66 67 68 69 71 72 73
40 39 39 38 37 37 37 36 36 37 38 38 38 38 38 38 38 39 39 40 40 40 40 40 40 40 39 40 41 43 45 45 46 47 48 49 51 52 52 52 52 53 53 54 57 60 57 55 56 58 60 63 65 66 67 66 66 67 69 70 71 72 73
41 40 39 38 37 37 37 37 37 38 38 38 38 37 37 37 38 39 40 40 40 40 40 40 40 40 40 40 41 43 44 45 46 47 49 50 51 52 52 52 52 53 54 55 59 62 60 58 60 61 62 64 64 65 66 66 67 68 69 70 72 73 74
40 40 39 38 37 38 38 38 39 39 38 38 38 37 37 37 38 40 41 41 41 40 40 40 41 41 41 41 42 43 45 47 48 49 49 49 50 51 52 52 52 53 54 55 59 62 62 62 63 63 63 63 64 64 65 66 67 68 69 71 72 73 74
40 40 38 38 38 39 39 40 41 41 40 39 38 37 37 38 39 40 40 40 40 40 41 41 41 42 42 42 44 46 47 49 50 50 50 49 50 51 53 54 54 55 55 56 58 61 62 62 62 62 63 63 64 65 65 66 68 69 69 71 72 73 74
41 40 39 39 40 40 41 42 43 41 39 37 35 36 37 38 39 40 40 40 40 41 42 42 42 42 42 43 45 47 49 50 50 51 52 52 53 53 54 55 55 56 56 56 57 59 60 61 61 62 63 64 64 65 66 66 68 69 70 71 72 73 73
41 40 41 41 41 42 41 40 39 36 34 33 34 37 40 40 41 41 41 42 42 43 43 42 41 41 42 44 45 47 49 51 52 52 53 54 55 55 55 56 56 56 56 57 57 58 60 61 61 62 63 64 64 65 66 66 68 69 70 71 72 73 73
42 42 42 42 40 39 38 38 39 38 38 38 41 42 43 42 43 43 43 43 43 43 43 42 41 40 41 43 45 47 49 51 52 53 54 55 56 56 56 56 56 56 56 56 57 58 60 61 61 62 63 63 64 65 65 66 67 68 69 70 71 72 73
43 42 42 41 40 39 40 41 43 44 45 45 46 46 45 44 44 45 44 44 43 43 43 43 41 40 41 43 45 47 49 51 52 52 54 55 56 56 56 56 56 55 55 56 57 58 60 61 61 61 62 63 64 64 65 66 67 68 69 70 71 72 73
45 44 43 44 45 46 45 44 43 44 46 47 47 47 46 45 45 45 45 44 44 43 43 43 41 41 41 43 45 47 49 51 52 53 54 56 56 56 56 56 56 56 56 57 57 58 59 60 60 61 62 63 63 64 65 66 67 68 69 70 71 72 73
45 45 46 47 49 49 47 45 46 46 47 48 49 48 47 46 46 46 45 44 44 43 43 43 42 42 42 43 45 47 49 51 52 53 54 56 57 57 58 58 57 57 57 57 58 58 59 59 60 61 62 62 63 64 65 66 67 68 69 70 71 72 73
43 45 48 49 49 48 48 48 48 48 48 49 49 48 47 47 46 46 46 45 45 44 43 43 43 43 43 44 45 47 49 50 50 51 53 55 56 57 57 57 57 57 57 58 59 60 60 60 61 61 62 63 64 65 65 66 67 68 69 70 71 73 74
45 48 49 49 49 49 49 49 49 49 49 49 49 49 48 47 47 47 47 46 45 44 43 43 43 43 43 44 45 47 48 48 48 49 51 53 54 55 56 56 57 57 58 59 60 61 62 62 63 64 64 65 66 66 67 67 68 69 70 71 72 73 74
48 50 50 50 50 51 51 50 50 50 50 50 50 50 49 48 48 48 47 47 47 45 45 44 44 44 44 43 44 46 47 47 48 48 50 51 52 53 54 56 56 56 57 58 59 61 62 62 64 65 65 66 67 68 68 69 69 70 70 71 73 74 75

ECMWFFLT1_250_spd_135.txt.gz
Wind_Speed
48 46 45 44 43 44 44 44 43 42 42 44 45 46 47 47 48 48 49 49 50 51 52 53 54 56 57 57 58 59 59 58 58 57 56 55 55 54 53 52 52 53 53 53 53 52 52 51 49 48 48 49 50 52 54 54 52 49 47 47 48 49 50
47 46 44 44 43 44 44 44 43 42 42 44 46 47 47 48 48 49 50 51 51 52 53 54 56 57 58 59 58 58 57 56 55 54 54 53 52 52 51 51 52 51 51 51 51 50 49 48 47 47 48 50 52 53 53 52 49 47 46 46 48 48 49
47 45 44 44 43 44 44 43 43 43 44 45 46 47 48 48 49 50 51 51 52 53 54 56 57 58 59 58 57 56 54 53 52 52 51 51 50 50 50 50 50 50 50 49 49 48 47 46 46 47 49 51 52 52 51 49 47 46 45 46 47 48 49
47 46 45 44 44 44 44 44 44 45 45 46 47 47 48 49 50 51 51 52 53 54 55 56 57 57 57 56 55 53 52 50 50 49 49 49 49 49 49 49 48 48 47 47 47 46 46 46 47 48 50 51 51 51 49 47 46 45 45 47 47 48 49
48 47 46 45 45 46 46 47 47 47 48 48 48 48 49 51 52 52 52 52 53 54 54 54 54 54 54 53 51 50 50 48 48 47 47 47 47 47 47 47 47 47 46 46 46 46 46 46 47 48 49 50 50 49 47 46 46 46 47 47 48 48 50
49 48 47 47 47 47 47 48 48 48 49 49 49 49 50 51 51 51 52 52 52 52 51 52 53 51 50 49 49 48 48 47 46 46 45 45 46 46 46 46 46 46 46 45 45 46 47 47 48 49 49 49 48 47 47 46 46 48 48 48 47 49 51
50 49 48 48 48 48 48 49 49 50 50 50 50 51 51 51 51 51 51 51 50 49 49 50 50 49 48 47 46 46 45 45 45 45 44 45 45 45 45 45 45 46 46 46 46 46 47 48 49 49 48 47 46 46 46 46 48 50 49 48 48 50 52
51 50 49 49 49 49 49 49 49 49 50 51 51 51 50 50 51 51 50 49 47 46 47 47 47 46 46 45 44 44 44 44 44 44 44 45 45 45 45 45 46 46 46 46 46 47 47 48 49 49 48 46 45 46 46 47 49 50 49 49 50 51 53
51 50 50 50 50 50 50 49 47 45 47 49 50 50 50 50 51 50 48 46 44 44 44 45 45 44 43 43 43 43 43 44 44 44 44 44 44 44 45 45 46 46 46 47 47 47 47 48 49 49 48 45 45 47 47 49 51 50 50 51 52 53 54
50 50 51 51 51 50 50 48 46 44 46 48 50 49 49 50 49 47 45 43 42 43 43 42 42 42 42 42 42 43 43 43 44 44 44 44 44 44 44 45 46 46 47 47 47 46 47 48 48 49 47 46 46 48 49 51 51 51 52 53 54 54 55
49 50 50 49 49 49 48 47 45 43 45 47 47 47 48 48 46 44 42 41 40 41 41 41 41 41 41 42 42 43 43 43 43 43 43 43 43 44 44 45 46 46 47 47 47 47 47 48 48 48 48 48 49 49 51 53 53 54 55 55 54 54 55
48 48 48 47 47 47 45 44 42 41 44 46 46 46 46 45 43 41 40 40 39 39 40 40 41 41 42 42 43 43 44 44 44 43 43 43 43 44 44 45 46 46 47 47 47 48 48 48 48 47 48 50 51 52 53 55 56 56 56 55 55 54 55
47 46 46 45 45 44 43 42 41 41 43 44 44 44 43 41 41 40 39 39 39 39 40 41 42 42 43 43 44 44 44 44 44 43 43 43 43 43 44 45 45 46 47 47 48 49 49 48 48 48 49 51 52 53 55 56 57 56 55 55 55 54 55
45 44 44 43 43 43 42 41 41 41 42 42 41 40 39 39 39 39 39 40 40 40 41 42 43 44 44 44 44 44 44 44 43 43 43 43 43 43 43 44 45 46 47 48 48 49 48 48 48 49 51 52 53 54 55 56 55 54 54 55 55 54 55
42 42 42 42 43 42 41 40 39 39 39 39 39 38 37 38 39 39 40 41 41 42 43 43 44 44 45 45 45 45 44 44 43 43 42 42 42 43 43 44 45 46 47 48 48 48 48 48 50 51 52 53 53 54 54 54 53 53 55 56 55 55 56
38 38 39 40 40 39 38 37 37 37 37 37 37 37 37 38 40 41 41 42 42 43 43 44 44 44 45 45 45 45 44 43 43 42 42 42 42 43 43 44 45 46 47 47 47 48 49 50 51 51 52 53 54 54 54 53 53 54 56 56 56 56 57
35 36 36 36 36 35 35 35 35 35 35 35 36 37 38 40 41 41 42 42 42 43 44 44 44 44 45 45 44 44 43 43 42 42 42 42 42 43 43 44 45 46 47 47 48 49 50 51 51 52 52 53 54 54 54 54 53 54 56 57 58 58 59
35 34 34 33 33 33 33 33 34 34 34 36 37 38 39 40 41 42 42 42 42 43 44 44 44 44 44 44 44 43 42 42 42 42 42 42 42 43 43 44 45 46 47 48 49 50 51 51 52 52 53 54 54 54 54 55 54 54 56 57 59 60 62
34 33 33 33 33 32 33 33 34 34 36 37 38 38 39 40 40 40 41 41 42 42 43 43 43 44 43 43 42 42 41 41 41 41 41 42 42 43 43 44 45 46 47 48 49 50 51 51 52 53 54 54 54 54 55 55 56 57 58 59 61 63 65
32 32 33 33 32 32 32 33 34 35 35 35 36 37 37 38 38 38 39 40 41 41 42 42 42 42 42 42 41 41 41 40 41 41 41 42 43 43 44 45 46 47 48 49 49 50 51 51 52 54 55 54 54 54 55 56 58 59 60 61 63 65 67
32 33 33 33 32 32 33 33 32 31 32 33 34 36 37 37 37 38 39 39 40 40 41 41 41 41 41 41 40 40 40 40 40 40 41 42 43 44 45 46 47 48 48 49 50 50 51 52 54 55 55 55 56 57 57 58 60 61 61 62 64 65 67
34 34 34 33 32 33 33 32 31 31 32 34 36 37 38 38 38 38 38 39 39 40 40 40 40 40 40 40 40 40 40 40 40 40 41 43 44 45 46 47 47 48 49 51 51 52 53 54 56 56 56 58 60 61 62 62 62 61 62 63 64 65 67
36 36 35 34 33 33 33 32 32 34 36 37 38 39 39 38 38 38 39 39 39 39 39 39 39 40 40 40 40 40 40 41 40 41 42 43 44 45 46 47 48 49 51 52 52 53 55 56 57 58 57 58 60 62 63 64 63 62 63 64 65 66 67
38 38 37 35 34 34 34 34 35 37 39 40 40 39 39 38 38 39 39 40 40 39 39 39 39 39 40 40 39 40 41 41 40 41 42 43 45 46 47 48 50 51 51 52 54 55 56 58 58 58 58 59 60 62 63 63 63 64 65 65 66 67 67
40 39 38 37 37 38 37 37 39 40 41 41 40 39 39 38 39 40 40 40 40 39 38 37 38 39 39 39 40 41 41 40 40 41 42 44 46 48 48 49 50 51 51 53 55 56 57 58 58 59 60 60 61 61 62 63 63 64 64 65 66 67 68
41 40 38 38 40 41 40 40 41 41 40 40 40 39 39 39 39 39 38 38 38 37 37 38 40 40 40 41 42 42 41 41 42 43 43 44 46 47 48 49 50 51 52 53 55 56 56 57 58 59 60 60 60 61 62 62 63 63 64 65 67 67 68
42 41 39 40 41 41 40 40 40 40 40 40 40 40 40 38 37 37 38 39 40 40 41 42 43 42 42 42 42 41 42 42 43 43 43 44 46 47 48 49 50 51 53 54 54 55 55 56 58 59 60 60 61 62 62 63 64 65 66 67 67 68 68
43 41 40 41 42 42 41 41 40 40 40 40 39 40 39 36 36 38 41 43 44 44 45 45 45 44 44 42 41 41 42 43 44 44 44 45 46 46 48 49 50 51 53 54 55 55 56 58 59 60 61 61 62 62 63 64 64 65 66 67 68 68 69
41 40 41 43 44 43 42 41 41 41 41 40 39 39 37 36 38 41 43 44 45 46 47 46 46 46 44 41 41 42 43 44 45 45 45 46 47 48 49 49 50 51 53 54 55 56 57 58 59 60 60 61 62 62 63 64 65 66 67 67 68 69 69
39 40 42 44 44 43 42 42 42 41 40 40 40 39 38 39 41 43 44 45 46 47 47 47 47 46 44 41 41 42 43 44 45 46 46 48 48 49 49 49 50 51 52 53 54 54 56 57 57 58 58 59 60 61 62 63 64 65 66 67 67 68 69
40 42 43 44 44 43 42 42 42 42 41 40 41 41 42 44 45 45 45 46 47 47 48 48 47 45 43 42 42 43 43 45 46 46 47 49 50 50 50 49 49 49 49 50 51 52 53 55 56 56 56 56 58 59 60 61 63 64 65 66 67 67 68
42 43 44 44 43 42 43 43 43 42 42 43 43 44 46 47 47 47 47 48 48 48 48 47 47 45 42 42 43 44 45 46 46 47 48 49 50 50 49 48 48 48 48 49 50 51 52 54 55 56 55 56 57 59 60 62 63 64 65 66 67 68 68
41 42 42 41 42 43 45 44 43 44 44 44 44 45 47 48 48 49 50 50 49 49 49 48 47 45 43 43 43 44 46 47 47 48 49 49 49 49 49 49 48 47 47 48 49 51 53 54 55 56 56 56 58 59 61 62 64 65 66 66 67 68 68
39 39 39 40 43 45 45 43 43 42 41 41 44 46 48 49 50 51 51 51 51 51 50 49 47 45 44 44 44 45 46 48 48 49 50 50 49 50 51 52 50 49 49 49 49 52 53 53 55 56 57 58 59 60 61 63 65 66 67 67 67 68 69
39 40 41 43 45 45 44 43 43 40 39 41 45 48 50 52 54 54 53 53 53 53 51 50 47 45 45 45 44 45 47 48 49 50 51 51 51 52 53 55 54 53 52 52 52 54 55 55 56 58 59 61 62 62 63 65 67 68 69 68 68 69 69
41 43 43 43 44 44 42 41 42 41 42 47 50 51 53 55 55 54 53 54 55 54 52 50 48 46 47 46 44 45 48 49 50 51 52 53 53 54 55 57 57 56 56 55 55 57 58 59 59 60 62 64 65 66 67 68 70 71 71 70 70 70 70
40 40 39 39 41 43 42 40 42 44 46 49 49 50 51 52 51 53 56 58 57 54 52 50 48 48 48 46 45 46 49 50 52 53 53 54 55 56 57 59 60 59 59 58 59 60 61 62 63 63 65 67 68 69 70 71 73 74 74 72 71 71 71

ECMWFFLT1_250_spd_138.txt.gz
Wind_Speed
54 53 53 53 53 51 50 49 48 47 45 44 44 45 46 46 46 46 46 45 45 46 47 48 49 49 51 53 54 53 54 54 53 52 51 51 50 49 48 48 47 47 47 46 46 45 46 46 46 46 46 45 45 44 44 45 45 45 45 45 43 42 42
54 53 53 53 52 51 50 49 48 46 45 44 45 46 46 46 46 45 45 45 46 48 49 50 50 51 52 53 53 54 54 53 52 49 48 48 47 47 46 46 46 45 45 45 45 45 45 46 46 45 45 45 45 44 44 44 44 44 44 43 42 41 42
53 52 52 52 51 50 49 48 47 46 45 45 45 46 46 46 46 46 47 47 48 49 49 50 51 53 54 53 52 53 54 52 50 47 46 46 45 45 44 44 44 44 44 44 45 45 45 45 46 45 45 45 44 44 44 44 44 44 43 42 41 42 43
51 51 51 50 50 49 49 48 47 46 46 45 46 46 47 47 48 48 49 49 49 50 50 50 51 53 55 55 53 52 52 50 48 46 45 45 44 43 43 43 44 44 44 44 45 45 45 45 46 46 45 45 44 44 43 44 44 43 43 41 41 43 44
50 50 50 49 49 49 49 49 48 47 46 46 47 46 47 48 49 50 50 50 51 51 51 51 51 52 54 54 53 50 48 47 46 45 45 44 43 43 43 43 44 44 44 45 45 46 46 46 46 45 45 45 44 43 43 43 43 43 42 42 42 44 46
50 50 50 49 49 49 50 50 49 48 47 47 47 47 48 49 50 51 51 51 51 50 49 50 50 51 52 52 50 48 46 45 44 44 43 43 43 43 44 44 44 45 45 46 46 46 46 46 45 45 44 44 44 43 43 42 42 42 42 42 44 46 47
50 50 50 50 50 50 51 51 50 49 48 47 47 47 47 48 49 49 50 50 49 48 48 49 50 51 51 49 47 45 44 44 43 43 43 43 44 44 45 45 46 46 46 47 47 46 46 46 45 44 44 43 43 43 42 42 42 43 43 44 46 48 49
51 51 51 51 52 52 52 51 50 50 49 48 47 45 46 48 49 50 50 49 48 47 48 50 50 49 48 46 44 44 43 43 43 43 44 44 45 45 46 46 47 47 47 47 47 47 46 45 45 44 43 42 43 43 42 42 43 44 44 46 48 50 50
53 53 53 53 53 53 52 52 51 50 49 49 48 47 47 49 51 51 51 48 46 47 49 49 48 47 45 43 43 43 43 43 44 45 45 45 46 46 47 47 47 48 48 48 47 47 46 45 44 43 42 42 42 42 43 43 44 45 46 48 50 51 51
55 54 54 53 54 54 53 52 50 50 49 49 49 48 47 47 47 47 46 45 46 47 47 47 45 44 44 43 43 43 44 45 46 46 46 46 47 47 48 48 48 48 48 48 47 46 45 44 43 42 42 42 42 42 43 44 45 46 47 49 50 51 52
55 54 53 53 53 53 52 51 50 49 49 48 48 47 46 45 44 42 41 43 45 45 44 43 42 41 42 43 44 44 45 45 46 47 47 47 47 48 48 48 48 48 48 47 46 45 44 44 43 42 42 42 42 42 43 44 45 46 48 49 51 51 52
54 53 53 52 52 51 50 49 49 48 47 47 46 44 42 40 40 40 41 42 43 42 41 41 40 40 41 43 44 44 45 46 47 48 48 48 48 48 48 48 47 47 47 46 46 45 44 43 43 43 43 43 43 43 43 44 45 46 48 50 51 52 52
51 50 50 50 49 48 48 47 46 46 45 45 43 41 38 37 37 39 41 42 41 40 39 39 40 40 41 43 44 45 46 47 48 48 48 47 47 47 47 47 46 46 46 45 45 45 44 44 43 43 44 44 44 44 44 45 45 47 49 51 52 53 53
47 47 47 47 46 45 44 44 44 43 43 42 40 38 37 38 39 40 41 40 39 38 38 39 40 41 42 43 44 45 46 47 47 47 46 46 46 46 45 45 45 45 45 45 45 45 45 45 44 44 45 45 45 45 46 46 47 49 51 52 53 54 54
43 44 43 43 41 41 41 41 41 41 41 39 37 37 37 38 39 39 38 37 36 37 38 39 40 41 42 42 43 44 45 45 45 45 45 45 44 44 44 44 44 44 45 45 45 45 45 45 45 45 45 45 46 47 47 48 49 51 52 53 54 54 55
41 40 40 39 38 38 38 38 39 39 37 35 33 33 34 35 36 36 36 36 36 37 38 39 39 39 40 41 42 43 43 43 44 44 44 43 43 43 43 43 44 44 44 45 45 46 46 46 46 45 45 46 47 48 48 49 51 52 54 55 55 55 57
38 37 36 36 35 35 35 36 35 34 32 31 30 31 33 34 35 35 36 36 36 36 36 37 37 38 39 40 41 42 42 42 42 43 42 42 42 42 43 43 44 44 45 45 46 46 46 46 46 46 46 47 48 48 49 50 52 54 56 57 57 59 60
35 34 34 34 33 34 34 33 32 30 29 29 29 31 33 34 35 36 36 35 34 34 35 36 37 38 39 40 41 41 41 42 42 42 42 42 42 43 43 44 44 45 45 45 46 46 46 47 47 47 48 48 48 49 50 52 54 56 57 58 59 61 62
33 33 33 33 33 33 33 31 30 29 28 29 30 31 32 34 35 34 33 32 32 34 35 37 38 39 40 41 41 41 41 41 41 41 42 42 42 42 43 44 45 44 44 45 45 46 47 48 48 49 49 49 50 51 52 54 56 57 58 58 60 61 62
33 33 33 33 33 32 31 30 29 28 28 29 30 31 32 33 33 32 32 32 34 36 37 38 38 39 40 41 41 41 40 40 40 41 42 42 42 43 44 44 44 44 44 45 46 47 48 48 49 49 50 51 52 53 54 56 57 58 59 60 60 61 61
33 33 33 33 32 30 29 28 28 28 28 30 31 32 32 33 33 33 33 34 36 37 37 37 38 39 39 39 39 39 39 39 41 43 43 44 45 45 45 45 45 45 46 46 47 48 48 49 50 50 51 53 54 54 55 56 57 58 59 59 60 61 61
33 33 33 33 31 29 28 28 28 28 29 31 31 31 32 33 34 34 35 37 38 38 37 37 38 38 38 38 38 39 40 42 44 45 45 46 47 46 45 45 45 46 46 47 47 48 49 50 51 52 53 54 55 56 56 56 57 57 58 59 59 60 61
34 34 33 32 30 28 28 29 30 30 31 32 33 32 33 34 35 36 38 39 38 37 36 37 38 38 38 39 39 40 42 44 45 46 47 48 47 45 44 44 45 46 47 47 48 49 50 51 52 52 53 54 55 56 56 56 56 57 57 58 59 60 61
36 35 34 33 31 30 30 32 33 33 33 34 34 34 35 37 37 38 38 38 36 35 35 36 38 39 39 40 40 42 44 45 46 47 48 48 46 45 44 45 46 46 47 48 48 49 50 51 51 52 52 53 54 55 55 55 55 56 57 58 59 59 60
37 37 36 35 34 33 34 35 36 35 35 35 35 36 37 38 38 38 38 36 35 33 34 36 38 39 40 41 42 43 45 45 46 48 48 47 46 45 45 46 46 46 47 48 49 49 49 49 50 50 51 52 53 54 54 55 55 56 57 58 58 58 59
38 38 38 37 36 36 36 37 38 38 37 37 36 36 37 37 38 38 37 36 34 33 34 36 38 39 40 42 43 44 45 46 46 47 48 47 46 45 45 46 47 47 47 48 48 48 48 48 48 49 50 51 52 53 54 54 55 56 56 57 57 58 59
38 39 38 38 38 38 39 40 40 39 38 38 38 37 37 37 38 38 37 36 35 35 36 37 38 40 42 43 44 45 46 47 47 47 48 48 47 46 46 46 47 47 47 47 47 47 46 46 47 48 50 51 52 52 52 53 54 55 56 57 58 59 60
38 39 38 38 39 40 40 41 41 41 40 40 39 38 38 39 39 38 38 37 36 36 36 38 39 41 43 43 45 46 47 48 48 49 48 48 47 47 47 47 47 47 47 47 47 47 46 47 48 49 50 51 51 52 53 54 56 57 58 59 60 61 63
38 39 39 39 40 40 41 41 42 42 41 40 39 38 39 40 39 38 37 37 36 37 38 40 41 42 42 43 46 48 49 49 50 50 50 49 48 47 47 48 48 48 47 48 48 48 49 49 50 51 52 52 53 54 55 56 58 59 60 62 63 64 65
40 40 40 40 40 41 41 41 41 42 41 39 39 40 41 40 39 38 37 37 38 38 39 41 41 42 43 45 49 49 49 51 53 52 51 50 49 48 49 49 48 49 49 49 50 51 52 52 53 54 55 56 56 57 58 59 60 61 62 64 65 66 67
41 41 40 40 40 40 40 40 40 40 40 39 40 41 40 39 38 38 38 38 39 39 40 40 41 43 45 48 50 49 50 54 55 53 52 51 49 49 49 49 49 49 51 51 52 53 54 55 56 56 57 59 59 60 61 61 62 63 64 66 67 68 69
41 41 40 39 39 39 39 39 39 39 39 40 41 39 38 38 39 39 38 38 39 39 40 41 43 46 48 49 48 48 52 56 56 55 54 52 51 50 50 49 49 50 51 53 54 55 56 57 58 59 60 61 62 63 64 64 65 65 66 67 68 69 71
42 41 40 40 40 40 39 39 39 38 39 39 38 37 38 39 40 39 38 38 39 40 40 42 46 48 47 46 46 50 56 59 58 55 54 53 52 51 49 49 49 51 52 54 55 57 58 59 61 61 62 63 64 65 66 67 67 67 68 69 70 70 72
44 43 42 42 42 41 40 40 38 36 35 36 36 38 41 42 41 39 38 39 40 41 42 45 48 49 47 47 49 54 59 61 59 56 55 54 54 52 50 50 51 52 54 55 57 58 60 62 63 64 65 66 67 68 68 69 69 69 69 71 71 72 73
44 43 41 41 42 42 41 40 37 33 33 36 38 40 41 41 40 40 40 41 41 41 44 48 51 51 50 51 54 58 62 62 60 56 55 55 54 53 53 53 53 55 56 57 59 60 62 63 65 66 67 68 68 69 70 70 70 69 70 72 72 73 75
42 41 40 41 42 42 41 40 37 34 35 38 40 40 37 37 40 42 42 41 41 43 47 51 52 53 53 54 57 60 62 61 58 56 55 55 55 55 55 55 56 57 59 59 61 62 63 65 66 67 68 69 69 70 70 70 70 70 71 72 73 75 76
43 42 41 43 44 43 41 39 36 34 35 38 39 39 38 39 43 44 43 43 45 48 51 52 52 52 54 57 59 60 59 58 56 55 55 55 56 57 57 58 59 59 60 61 62 64 65 66 68 69 69 69 70 70 71 71 71 71 72 73 74 75 77

ECMWFFLT1_250_spd_141.txt.gz
Wind_Speed
52 50 49 49 50 49 48 47 47 46 45 45 44 44 43 42 42 42 42 42 43 43 43 44 44 44 46 48 49 50 50 49 47 46 46 47 46 45 43 43 42 41 41 41 41 42 42 43 43 43 44 44 44 44 43 43 43 42 41 40 40 41 40
50 49 47 48 48 47 47 46 46 46 45 44 43 43 42 42 42 42 43 44 44 44 44 45 45 46 47 48 48 49 48 45 45 45 46 46 45 43 42 41 41 40 41 41 42 43 43 44 44 44 45 45 45 44 43 43 42 41 40 39 39 40 39
50 48 46 46 46 45 45 45 46 46 45 44 43 42 42 42 42 42 44 44 45 46 46 46 46 47 47 48 47 45 43 42 43 45 45 45 43 42 41 41 41 41 42 43 44 44 44 45 45 45 45 45 45 44 43 42 40 39 39 39 39 39 39
49 46 44 45 45 44 44 45 46 45 44 43 42 41 42 42 43 44 45 45 46 47 47 47 47 47 48 47 42 39 40 43 45 45 44 43 42 41 41 41 42 43 43 44 45 45 45 45 45 46 46 45 45 44 42 40 39 38 39 39 39 39 39
47 45 45 44 44 44 44 45 45 45 44 42 42 42 43 43 44 45 45 45 46 47 47 47 45 45 44 40 38 40 44 46 46 45 43 41 41 41 41 42 43 44 44 45 46 46 46 46 46 46 45 45 45 43 42 40 39 38 39 39 39 39 39
47 46 46 45 45 44 44 45 45 45 44 43 43 43 44 44 45 45 45 46 46 47 47 43 39 38 38 38 43 47 47 46 46 43 42 41 41 41 42 43 44 45 45 46 46 46 46 46 46 45 45 45 44 43 41 40 39 39 39 39 39 40 40
48 47 46 46 45 45 45 45 45 45 44 44 44 45 45 46 46 46 46 46 45 46 45 38 34 37 39 43 47 48 46 46 44 41 41 41 41 42 43 44 45 46 46 46 46 46 46 46 45 45 45 44 43 42 41 40 39 39 39 40 40 41 41
48 47 47 46 46 46 46 45 45 45 45 45 45 46 47 47 48 47 47 46 45 45 43 38 36 39 42 45 46 45 45 44 41 40 41 41 42 43 44 45 46 46 46 46 46 46 45 45 45 45 44 44 43 42 41 40 40 39 40 41 41 42 43
47 47 47 48 47 47 46 46 46 46 46 46 47 48 48 49 48 48 47 46 44 43 41 39 39 41 42 43 44 45 44 42 40 41 41 42 43 44 44 45 45 45 45 45 45 45 45 45 45 45 44 43 43 42 41 41 40 41 41 41 42 43 44
46 46 47 48 48 47 47 47 47 47 47 47 48 49 49 49 49 47 46 45 42 40 39 38 38 39 40 42 44 44 42 41 41 41 41 42 43 43 44 44 44 45 45 45 45 45 45 45 45 45 44 44 43 42 41 41 42 42 42 42 43 44 45
46 46 48 49 49 48 48 48 48 48 48 49 49 49 49 49 48 46 44 43 41 39 38 36 36 38 40 42 42 41 40 40 40 40 41 41 41 42 43 43 44 44 44 44 44 45 45 45 45 45 45 44 43 43 42 42 43 43 43 44 45 46 47
48 48 49 50 50 49 49 49 49 49 49 49 49 49 49 48 46 44 43 41 39 38 36 36 36 38 40 40 39 38 39 39 38 38 39 40 41 42 43 43 43 43 43 44 44 45 45 45 45 45 45 44 44 43 43 43 43 44 45 46 46 47 48
51 51 51 51 51 50 50 50 50 50 50 50 49 48 47 45 44 42 41 39 37 36 36 36 37 38 38 38 37 37 37 36 36 37 39 40 41 42 42 42 41 41 42 43 43 45 45 45 45 44 44 44 44 44 44 44 44 45 47 47 47 48 50
53 53 53 52 51 51 51 51 50 50 49 48 47 46 44 43 41 39 38 37 35 35 36 36 36 36 36 36 35 35 34 35 36 38 39 40 41 41 40 39 40 40 41 43 44 45 45 45 44 44 44 44 44 45 45 45 46 46 47 48 48 49 50
53 52 52 51 50 50 50 49 49 48 47 46 44 43 42 40 38 37 35 34 34 34 34 34 34 34 34 34 33 33 33 35 37 38 39 39 39 38 38 39 40 41 42 44 45 45 44 44 43 43 44 45 45 46 46 46 47 47 47 48 49 49 50
50 50 49 49 48 48 48 47 46 45 44 43 41 41 39 37 36 34 33 32 32 32 32 32 32 33 32 32 32 33 34 36 37 38 37 37 36 37 38 40 41 42 43 44 44 44 43 42 42 43 44 44 45 46 46 47 46 46 47 48 48 49 50
47 47 46 46 46 46 44 43 42 42 41 40 39 38 37 35 33 32 32 31 31 31 32 32 32 31 31 31 32 34 35 37 37 36 35 35 35 37 39 40 41 42 44 44 44 43 42 42 42 43 44 44 45 46 46 47 46 46 47 48 48 49 50
44 43 43 43 43 42 40 39 39 39 38 38 37 36 33 32 31 31 31 30 30 31 31 32 31 31 31 32 34 35 36 36 35 35 35 35 36 38 39 40 41 43 44 45 44 43 42 42 43 43 44 45 45 46 46 47 47 47 48 48 49 49 50
42 40 40 40 40 39 37 37 37 37 37 36 35 33 32 32 31 31 30 30 30 30 31 31 32 32 33 34 36 36 36 35 34 35 36 35 36 39 40 41 43 44 45 45 44 43 43 43 43 44 44 45 45 46 47 47 48 49 49 50 50 51 51
39 38 38 38 38 37 37 36 36 36 35 34 33 32 32 31 31 30 30 30 30 30 31 31 33 34 35 36 36 36 36 35 34 35 35 36 37 39 41 42 44 45 46 46 45 44 44 44 44 45 45 46 46 46 47 48 49 50 51 51 52 52 53
38 37 37 38 38 38 37 36 35 34 34 33 32 32 31 30 30 30 30 30 30 30 30 31 33 35 36 36 36 36 36 35 35 35 35 36 38 40 42 43 45 47 47 47 46 45 45 45 45 46 46 47 47 47 48 49 50 51 52 53 53 54 55
38 38 38 39 39 39 37 36 35 34 33 33 33 31 30 30 30 30 30 31 31 31 30 32 34 35 36 36 36 36 35 35 35 35 36 37 39 41 43 44 46 48 48 47 46 46 45 46 46 47 47 48 49 49 50 50 52 53 54 55 56 57 57
40 40 40 41 40 39 37 36 35 35 34 33 32 31 30 30 31 31 31 31 32 32 32 34 35 36 36 36 37 37 35 35 35 36 37 37 39 42 43 44 47 49 48 47 46 46 46 46 47 48 49 49 50 51 51 52 53 55 56 58 59 59 60
41 41 41 42 41 39 38 37 36 36 34 33 32 31 31 31 31 32 32 32 32 32 33 34 35 36 37 37 38 37 36 35 35 36 37 37 40 43 44 44 48 50 48 46 46 46 46 47 47 49 50 51 52 52 53 54 55 56 58 59 61 61 62
42 42 41 42 41 39 38 37 37 37 35 34 33 32 33 33 33 33 34 34 33 33 34 36 36 37 38 38 38 37 36 36 36 37 37 38 42 45 44 45 50 51 48 46 46 46 47 47 48 49 50 52 53 53 54 55 56 58 59 61 62 63 64
42 42 41 41 40 39 38 38 38 39 38 36 35 35 35 36 35 35 36 35 35 35 37 37 37 38 38 38 37 36 36 36 36 36 38 41 44 45 43 46 52 52 49 46 46 46 46 47 49 50 51 52 54 55 56 57 58 60 62 63 64 65 67
42 40 39 39 38 38 38 38 39 40 40 39 38 38 38 37 37 37 37 37 37 38 38 38 38 39 38 38 37 36 36 36 35 37 40 42 44 43 44 49 53 54 51 48 46 45 46 47 49 51 51 53 55 57 58 59 61 63 65 65 66 67 69
40 38 37 37 37 37 37 38 39 41 41 41 40 40 39 39 39 39 39 39 39 40 39 39 39 38 37 37 36 36 37 36 36 38 41 42 43 43 46 51 54 55 53 51 49 47 47 48 50 52 53 54 56 58 60 61 63 65 67 68 69 70 71
38 37 35 35 36 37 37 38 40 41 42 42 41 41 40 40 39 40 40 40 40 39 39 39 38 37 36 37 37 37 37 36 37 40 42 43 43 44 47 51 53 54 53 52 50 49 49 50 51 52 54 56 58 59 60 62 64 66 68 70 71 72 72
37 36 35 35 36 37 37 38 40 41 42 42 42 41 41 40 40 40 41 40 39 38 39 38 37 36 37 37 37 37 36 36 38 41 43 44 44 46 48 50 51 51 51 50 49 48 48 49 51 52 54 56 57 59 60 62 64 66 68 70 72 73 73
36 36 35 35 36 36 36 37 39 40 41 42 42 42 42 41 40 40 40 38 38 39 39 37 36 37 38 37 37 37 36 37 40 42 44 45 45 47 49 50 49 48 48 48 47 47 48 49 50 52 53 55 56 58 60 62 64 65 67 69 71 72 72
35 35 34 35 36 36 36 37 39 40 41 42 42 42 42 41 40 38 38 37 38 39 38 36 37 39 37 36 37 37 37 40 42 43 45 46 46 47 50 49 47 46 47 46 46 47 48 50 51 52 54 56 58 60 63 65 66 67 69 70 71 71 72
34 35 34 35 36 36 36 37 38 39 40 41 42 42 43 41 39 38 39 39 38 38 37 38 40 39 37 38 39 39 40 42 43 45 46 46 46 48 50 49 47 47 47 46 47 49 51 53 54 56 58 60 62 64 67 69 71 71 72 72 72 72 72
35 35 34 35 36 36 36 36 37 39 40 42 42 43 43 42 40 39 39 39 37 37 39 41 42 41 40 41 42 42 43 45 46 46 46 46 47 50 50 49 48 47 47 48 49 51 54 56 58 60 62 64 66 68 71 74 76 76 75 74 73 73 73
35 34 34 35 35 36 36 36 37 39 41 42 42 43 44 42 39 38 38 39 38 38 41 43 43 44 44 44 44 45 46 47 47 46 45 47 50 51 51 50 49 49 49 49 51 53 56 59 62 64 66 68 70 72 75 79 80 80 78 76 75 74 75
35 35 35 36 36 35 35 36 38 40 40 41 42 43 42 40 38 38 39 39 39 40 42 43 44 46 47 48 47 47 49 50 48 46 47 50 52 52 51 51 50 50 51 52 54 56 59 62 65 67 69 70 72 75 79 83 84 83 81 79 77 76 76
34 37 38 38 37 36 35 37 39 39 39 41 43 44 43 40 39 40 40 38 38 40 42 43 45 47 49 50 49 48 50 51 49 48 50 52 53 52 53 53 51 51 53 54 56 58 61 64 67 69 71 72 74 78 83 86 87 86 83 81 79 78 76